Regional Weather Roundup
Issued by NWS

Home | Current Version | Previous Version | Text Only | Print | Product List | Glossary Off
Versions: 1 2 3 4 5 6 7 8 9 10 11 12 13 14 15 16 17 18 19 20 21 22 23 24 25 26 27 28 29 30 31 32 33 34 35 36 37 38 39 40 41 42 43 44 45 46 47 48 49 50

000
ASUS43 KLOT 060912
RWRIL

ILLINOIS REGIONAL WEATHER ROUNDUP
NATIONAL WEATHER SERVICE CHICAGO/ROMEOVILLE IL
300 AM CST TUE DEC 06 2016

NOTE: "FAIR" INDICATES FEW OR NO CLOUDS BELOW 12,000 FEET WITH NO
SIGNIFICANT WEATHER AND/OR OBSTRUCTIONS TO VISIBILITY.

* THESE STATIONS ARE NOT UNDER NWS QUALITY CONTROL. THEY ALSO MAY NOT
  REPORT WEATHER SUCH AS PRECIPITATION OR FOG.

ILZ001-002-007-009-015-016-024-061000-
NORTHWEST ILLINOIS

CITY           SKY/WX    TMP DP  RH WIND       PRES   REMARKS
MOLINE         CLOUDY    34  32  92 E5        29.84R FOG     WCI  30
STERLING*      FOG       33  32  96 SE5       29.85S VSB 1   WCI  29
SAVANNA*       FOG       32  32  99 SE5       29.85F VSB 1   WCI  28
$$

ILZ003-004-008-010-011-017-018-061000-
NORTH CENTRAL ILLINOIS

CITY           SKY/WX    TMP DP  RH WIND       PRES   REMARKS
ROCKFORD       FOG       33  33 100 SE6       29.87S VSB 1   WCI  28
FREEPORT*      FOG       31  31 100 SE5       29.87S VSB 3/4 WCI  26
ROCHELLE*      FOG       32  32 100 SE9       29.85S VSB 1   WCI  24
DE KALB*       CLOUDY    32  32  99 SE9       29.84F FOG     WCI  24
$$

ILZ005-006-012>014-019>023-061000-
NORTHEAST ILLINOIS

CITY           SKY/WX    TMP DP  RH WIND       PRES   REMARKS
CHICAGO-OHARE  MOCLDY    33  31  92 E3        29.85F FOG
CHICAGO-MIDWAY MOCLDY    32  28  85 SE3       29.86F FOG
AURORA         FOG       28  26  92 E5        29.85F VSB 1/2 WCI  23
LANSING*       CLOUDY    31  31 100 NE3       29.86F FOG
JOLIET*        MOCLDY    31  30  95 E5        29.85F FOG     WCI  26
WAUKEGAN       CLOUDY    37  34  89 SE6       29.85F WCI  32
DUPAGE AIRPORT PTCLDY    31  29  92 E3        29.84F FOG
KANKAKEE*      MOCLDY    30  29  95 CALM      29.84F FOG
WHEELING       PTCLDY    29  28  96 SE3       29.86F FOG
MORRIS*        PTCLDY    28  26  96 E3        29.84F FOG
ROMEOVILLE*    PTCLDY    30  30 100 E8        29.84F FOG     WCI  23
NORTHERLY ISL    N/A     37  34  89 E9          N/A  WCI  30
$$

LMZ740>746-061000-
SOUTHERN LAKE MICHIGAN

STATION/POSITION SKY/WX   TEMP    WIND        PRES    VSBY  WAVE
                          AIR SEA DIR/SP/G                  HT/PER
                          (F)     (DEG/KT/KT) (MB)    (MI)  (FT/S)
HARRISON CRIB              39     140/ 10/ 12   N/A
BURNHAM HARBOR             37     120/  9/  9   N/A
CALUMET HARBOR             36     110/  6/  8 1011.0F
BURNS HARBOR               34     100/  7/ 13 1012.2S
$$

ILZ025>027-034>036-040-047-049-050-058-095>099-061000-
WEST-CENTRAL ILLINOIS

CITY           SKY/WX    TMP DP  RH WIND       PRES   REMARKS
QUINCY         CLOUDY    35  33  92 NW5       29.80F FOG     WCI  31
GALESBURG*     CLOUDY    33  33 100 CALM      29.82R FOG
MACOMB*        CLOUDY    35  35  99 CALM      29.83F FOG
JACKSONVILLE*  CLOUDY    32  32  99 NE3       29.80S FOG
PITTSFIELD*    CLOUDY    36  35  96 CALM      29.80F FOG
$$

ILZ028>032-037-038-041>044-048-051>054-059>061-061000-
CENTRAL ILLINOIS

CITY           SKY/WX    TMP DP  RH WIND       PRES   REMARKS
PONTIAC        CLOUDY    30  30 100 CALM      29.84S FOG
BLOOMINGTON    CLOUDY    29  29 100 N9        29.81F FOG     WCI  20
DECATUR        CLOUDY    34  32  92 NE3       29.79F FOG
PEORIA         FOG       32  32 100 E8        29.81F VSB 1/4 WCI  25
LACON*         FOG       31  31 100 E7        29.82F VSB 3/4 WCI  25
LINCOLN*       PTCLDY    33  33 100 N5        29.81F FOG     WCI  28
SPRINGFIELD    CLOUDY    34  32  92 N3        29.80F FOG
TAYLORVILLE    CLOUDY    35  34  95 CALM      29.77F
$$

ILZ033-039-045-046-055>057-062-063-061000-
EAST-CENTRAL ILLINOIS

CITY           SKY/WX    TMP DP  RH WIND       PRES   REMARKS
CHAMPAIGN      MOCLDY    36  32  85 NE12      29.78F WCI  28
RANTOUL*       CLOUDY    35  34  95 E10       29.79F FOG     WCI  27
MATTOON        CLOUDY    37  33  85 N3        29.75F
PARIS*         PTCLDY    36  34  92 NE5       29.78F WCI  32
$$

ILZ079-100>102-061000-
SOUTHWEST ILLINOIS

CITY           SKY/WX    TMP DP  RH WIND       PRES   REMARKS
ALTON          CLOUDY    37  34  92 CALM      29.78S
BELLEVILLE     DRIZZLE   39  37  93 NE3       29.75F
CAHOKIA*       CLOUDY    39  36  89 NE3       29.78R
SPARTA*        CLOUDY    38  37  95 CALM      29.77R
$$

ILZ064>066-069>071-074>076-080>082-084>086-088>090-092>094-061000-
SOUTH-CENTRAL ILLINOIS

CITY           SKY/WX    TMP DP  RH WIND       PRES   REMARKS
CARBONDALE     RAIN      39  39 100 N5        29.74S FOG
CAIRO*         DRIZZLE   40  40 100 N8        29.70S
EFFINGHAM*     DRIZZLE   38  37  96 E6        29.76F WCI  34
CENTRALIA*     CLOUDY    39  37  93 CALM      29.74F
SALEM*         LGT RAIN  40  37  88 E3        29.75F
METROPOLIS*    DRIZZLE   41  40  97 CALM      29.70F
$$

ILZ067-068-072-073-078-083-087-091-061000-
SOUTHEAST ILLINOIS

CITY           SKY/WX    TMP DP  RH WIND       PRES   REMARKS
LAWRENCEVILLE  CLOUDY    41  36  82 NE7       29.76F
FLORA*         LGT RAIN  40  37  90 NE5       29.74F
FAIRFIELD*     LGT RAIN  39  38  94 NE5       29.73F
HARRISBURG*    RAIN      40  39  99 N7        29.73F
ROBINSON*      CLOUDY    38  36  91 NE5       29.78F WCI  34
CARMI*         RAIN      39  39  99 N6        29.73F
$$

ABBREVIATIONS USED IN REMARKS
   TC - TEMPERATURE IN CELSIUS
  WCI - WIND CHILL INDEX
   HX - HEAT INDEX
  VSB - VISIBILITY
$$




USA.gov is the U.S. government's official web portal to all federal, state and local government web resources and services.